Lid_Strength_Index
2 1 -0 0 1 1 1 1 1 0 1 -1 -1 -2 -1 -1 -0 2 5 2 1 -4 -2 2 2 3 3 4 3 3 7 9 8 8 7 6 6 6 6 6 7 6 6 8 7
2 2 -0 -0 1 0 1 1 1 1 -0 0 -1 -1 -1 -1 3 4 0 -4 -4 -3 2 4 4 3 4 5 5 5 8 8 6 6 6 6 6 6 7 7 7 7 7 9 9
2 2 1 1 0 0 -1 0 0 0 0 -0 -1 -1 -1 -0 4 5 -3 -4 -4 -3 2 3 4 4 5 5 6 6 8 7 7 6 6 6 7 6 7 7 6 6 5 9 9
2 -0 -1 -0 -0 -0 0 1 0 0 -0 -1 -1 -1 -1 3 8 4 -3 -3 -3 1 3 4 5 6 6 7 7 8 7 7 7 8 7 7 6 7 6 5 4 4 4 7 9
1 -0 -0 -0 -0 -0 0 1 0 -0 -0 -1 -1 -1 3 5 5 3 -2 0 3 4 5 5 6 6 8 7 8 8 8 8 8 8 8 7 8 7 6 5 4 6 6 7 8
0 -0 -1 -1 -0 -0 -0 0 0 -0 -1 -1 -1 -0 4 6 3 3 3 4 4 4 5 5 6 6 7 8 8 8 8 8 8 8 8 9 8 9 7 6 5 6 7 6 7
0 -1 -0 -0 0 1 -0 -0 -1 -0 -0 -1 -1 3 5 5 3 3 3 4 4 4 5 5 5 6 7 8 8 9 10 8 8 9 9 9 10 10 7 7 7 7 6 6 6
-0 -1 -1 -0 0 0 0 0 -0 0 -0 -1 -1 3 6 3 2 4 3 4 4 4 4 5 5 6 7 8 8 9 9 10 9 10 9 10 10 7 7 7 7 7 7 7 7
0 0 -0 0 1 1 1 0 0 -0 -1 -1 3 4 7 2 4 4 4 5 5 5 4 5 5 7 8 9 10 9 11 11 10 9 10 10 10 7 7 8 8 7 6 7 7
-0 1 0 0 1 3 1 0 0 1 1 3 4 6 5 6 5 5 4 4 5 5 6 6 6 8 9 9 12 11 11 10 11 10 11 11 11 8 7 8 8 7 7 7 7
0 0 2 1 2 3 1 3 5 5 5 6 6 7 6 5 4 5 5 5 5 6 9 8 9 10 9 9 9 10 11 11 10 9 12 11 10 9 8 8 8 7 7 7 6
1 2 2 2 3 2 3 5 5 5 8 6 6 6 6 5 7 6 5 7 7 9 9 9 10 8 10 10 11 11 11 11 10 11 12 11 11 9 8 8 7 7 7 7 6
1 3 3 3 2 1 2 4 2 4 7 7 6 7 6 5 7 7 6 7 8 9 9 10 9 10 10 11 12 11 11 11 12 11 10 12 11 9 7 8 8 7 7 7 7
2 2 1 1 2 3 5 3 2 5 9 9 8 7 6 6 8 6 6 7 8 10 9 9 9 10 10 11 10 12 11 12 12 12 13 11 14 11 9 8 7 7 6 6 6
2 1 1 2 2 3 3 3 3 5 15 9 8 5 6 8 8 7 6 7 9 9 9 10 11 11 11 11 10 11 11 11 12 12 13 13 14 11 9 9 8 7 7 7 6
1 1 1 2 2 3 3 3 4 10 15 10 8 9 9 8 8 8 8 7 8 10 10 10 9 10 10 11 11 11 12 12 12 13 15 13 14 12 10 10 8 7 7 7 7
1 1 2 3 3 2 3 4 10 13 10 10 10 9 9 9 9 9 9 9 10 12 11 10 11 10 10 11 11 11 11 13 14 14 15 13 14 12 9 8 8 8 7 7 6
2 3 3 2 2 3 4 7 13 12 11 9 9 9 10 10 10 10 10 10 10 10 11 12 13 11 10 11 12 12 12 13 17 16 14 14 15 11 8 8 8 8 8 6 6
3 1 1 2 2 4 6 11 11 11 9 10 10 11 10 10 10 10 10 10 10 9 11 12 12 11 11 10 11 12 12 12 13 14 16 13 12 10 8 8 7 8 7 7 7
3 4 2 2 3 4 7 11 10 9 9 9 11 10 11 10 10 10 10 9 10 10 10 11 13 12 11 11 11 11 11 13 13 17 17 14 14 13 10 9 8 8 8 7 7
2 5 3 2 3 5 10 9 9 9 8 9 9 10 10 10 10 10 11 10 10 11 10 10 12 12 12 12 12 13 13 13 13 14 16 17 14 10 10 8 10 9 8 8 8
3 7 3 3 6 8 9 9 9 8 7 8 8 9 10 10 11 11 11 10 10 10 11 11 12 14 13 13 13 13 13 12 14 15 14 14 15 9 8 8 8 8 8 8 7
5 5 2 3 9 9 8 9 8 8 8 9 9 9 9 10 12 11 11 10 10 11 11 11 12 14 13 13 12 13 12 12 12 13 14 15 14 8 8 7 7 7 7 7 7
5 8 5 4 7 8 9 9 10 8 9 9 9 9 10 11 10 11 11 10 10 10 8 9 11 12 14 12 10 12 12 12 11 13 12 12 11 9 8 8 8 8 7 7 8
6 8 7 9 8 9 9 10 11 11 9 9 10 9 10 11 11 11 10 10 9 9 10 10 11 10 10 10 10 10 11 10 11 11 13 12 11 9 8 8 8 8 7 8 8
7 8 8 9 9 9 10 10 10 10 9 10 10 10 9 10 9 10 10 9 9 10 10 11 11 11 12 11 11 12 11 10 10 10 11 10 11 8 8 8 7 7 7 8 7
5 6 7 10 9 9 8 9 9 9 9 8 8 8 9 9 8 8 8 8 8 9 10 10 11 12 14 12 13 15 12 11 11 10 11 13 10 9 9 9 8 7 7 7 7